{"data":{"norad_id":54865,"intl_designator":"2022-177AX","name":"STARLINK-5411","alt_names":[],"object_type":"PAYLOAD","status":"ACTIVE","operator":null,"country":"US","launch_date":"2022-12-28","launch_site_code":"AFETR","launch_vehicle":null,"mission":null,"orbit_class":"UNKNOWN","rcs_meters":null,"size_class":null,"mass_kg":null,"dimensions":null,"purposes":["comms"],"wikipedia_slug":null,"has_3d_model":false,"image_url":null,"decayed_at":null,"tle_current":{"epoch":"2026-05-25T00:19:02.239104Z","epoch_age_seconds":77006,"freshness":"FRESH","line1":"1 54865U 22177AX  26145.01322036  .00000071  00000+0  12110-4 0  9998","line2":"2 54865  43.0046  50.5149 0001341 260.6039  99.4661 15.27577125188763","mean_motion":15.27577125,"eccentricity":0.0001341,"inclination_deg":43.0046,"raan_deg":50.5149,"arg_perigee_deg":260.6039,"mean_anomaly_deg":99.4661,"bstar":1.211e-5,"rev_number":18876,"period_min":94.266926129835,"perigee_km":482.13761862751,"apogee_km":483.97779104735,"semimajor_km":6861.1947048374,"source":"CELESTRAK","updated_at":"2026-05-25T13:38:17.728735Z"}}}